Weather History for Antigo, WI

Change the Weather History Date:

Saturday, November 9, 2013

  Actual Average Record
Temperature  
Mean Temperature 34 °F -  
Max Temperature 37 °F 41 °F 69 °F (1999)
Min Temperature 32 °F 26 °F 1 °F (1991)
Degree Days  
Heating Degree Days 30    
Moisture  
Dew Point 32 °F    
Average Humidity 89    
Maximum Humidity 100    
Minimum Humidity 72    
Precipitation  
Precipitation 0.05 in - - ()
Sea Level Pressure  
Sea Level Pressure 29.74 in    
Wind  
Wind Speed 14 mph (WSW)    
Max Wind Speed 26 mph    
Max Gust Speed 37 mph    
Visibility 8 miles    
Events Snow    
Averages and records for this station are not official NWS values.
T = Trace of Precipitation, MM = Missing Value Source: NWS Daily Summary

Daily Weather History Graph

Daily Weather History Graph

Search for Another Location

Airport:

Trip Planner

Search our weather history database for the weather conditions in past years. The results will help you decide how hot, cold, wet, or windy it might be!

Date:

Astronomy

Nov. 09, 2013 Rise Set
Actual Time 6:46 AM CST 4:33 PM CST
Civil Twilight 6:15 AM CST 5:04 PM CST
Nautical Twilight 5:39 AM CST 5:40 PM CST
Astronomical Twilight 5:05 AM CST 6:14 PM CST
Moon 12:20 PM CST (11/9) 11:07 PM CST (11/9)
Length of Visible Light 10h 49m
Length of Day
9h 46m
Waxing Crescent, 44% of the Moon is Illuminated
Nov 9
Waxing Crescent
Nov 9
First Quarter
Nov 17
Full
Nov 25
Last Quarter
Dec 2
New

Hourly Weather History & Observations

Time (CST) Temp. Windchill Dew Point Humidity Pressure Visibility Wind Dir Wind Speed Gust Speed Precip Events Conditions
12:15 AM 32.0 °F 22.1 °F 32.0 °F 100% 29.73 in 1.2 mi SSE 13.8 mph - 0.01 in Snow Light Snow
12:35 AM 32.0 °F 22.1 °F 32.0 °F 100% 29.71 in 1.2 mi SSE 13.8 mph - 0.04 in Snow Light Snow
12:55 AM 32.0 °F 23.0 °F 32.0 °F 100% 29.70 in 2.5 mi SSE 11.5 mph - 0.04 in Snow Light Snow
1:15 AM 32.0 °F 23.0 °F 32.0 °F 100% 29.69 in 3.0 mi SSE 11.5 mph - N/A Snow Light Snow
1:35 AM 32.5 °F 22.7 °F 32.2 °F 99% 29.67 in 7.0 mi SSE 13.8 mph 17.3 mph 0.01 in Snow Light Snow
1:55 AM 32.7 °F 22.1 °F 32.2 °F 98% 29.64 in 7.0 mi SE 16.1 mph - 0.01 in   Overcast
2:15 AM 32.9 °F 25.3 °F 32.2 °F 97% 29.64 in 7.0 mi SSE 9.2 mph 18.4 mph N/A   Overcast
2:35 AM 32.9 °F 26.7 °F 32.4 °F 98% 29.64 in 5.0 mi South 6.9 mph - N/A   Overcast
2:55 AM 33.1 °F 25.5 °F 32.9 °F 99% 29.63 in 5.0 mi SSE 9.2 mph - N/A   Overcast
3:15 AM 34.0 °F 25.5 °F 33.4 °F 98% 29.63 in 7.0 mi South 11.5 mph - N/A   Overcast
3:35 AM 33.8 °F 25.8 °F 33.1 °F 97% 29.62 in 10.0 mi South 10.4 mph - N/A   Overcast
3:55 AM 33.8 °F 27.7 °F 33.1 °F 97% 29.62 in 7.0 mi South 6.9 mph - N/A   Overcast
4:15 AM 33.6 °F 26.8 °F 33.3 °F 99% 29.62 in 5.0 mi South 8.1 mph - N/A   Overcast
4:35 AM 33.8 °F 27.7 °F 33.3 °F 98% 29.62 in 4.0 mi SSW 6.9 mph - N/A   Overcast
4:55 AM 33.8 °F 29.6 °F 33.8 °F 100% 29.61 in 4.0 mi SSW 4.6 mph - N/A   Overcast
5:15 AM 34.3 °F 28.4 °F 34.3 °F 100% 29.61 in 5.0 mi SW 6.9 mph - N/A   Overcast
5:35 AM 35.6 °F 28.6 °F 35.2 °F 99% 29.61 in 7.0 mi SW 9.2 mph - N/A   Overcast
5:55 AM 36.0 °F 29.0 °F 35.8 °F 99% 29.61 in 7.0 mi SW 9.2 mph - N/A   Overcast
6:15 AM 36.0 °F 29.6 °F 35.8 °F 99% 29.62 in 4.0 mi WSW 8.1 mph - N/A   Overcast
6:35 AM 36.1 °F 30.6 °F 36.1 °F 100% 29.62 in 1.5 mi SW 6.9 mph - N/A   Overcast
6:55 AM 36.1 °F 30.6 °F 36.1 °F 100% 29.62 in 1.0 mi SW 6.9 mph - N/A   Overcast
7:15 AM 36.5 °F 30.3 °F 36.5 °F 100% 29.62 in 1.2 mi WSW 8.1 mph - N/A   Overcast
7:35 AM 37.4 °F 30.3 °F 37.4 °F 100% 29.63 in 5.0 mi WSW 10.4 mph - N/A   Overcast
7:55 AM 37.8 °F 29.4 °F 37.4 °F 99% 29.64 in 10.0 mi West 13.8 mph 19.6 mph N/A   Overcast
8:15 AM 37.6 °F 29.1 °F 36.3 °F 95% 29.64 in 7.0 mi West 13.8 mph - N/A   Overcast
8:35 AM 37.4 °F 28.2 °F 36.1 °F 95% 29.64 in 7.0 mi West 16.1 mph 23.0 mph N/A   Overcast
8:55 AM 37.0 °F 27.7 °F 36.0 °F 96% 29.65 in 7.0 mi West 16.1 mph 20.7 mph N/A   Overcast
9:15 AM 37.4 °F 28.5 °F 36.1 °F 95% 29.65 in 3.0 mi West 15.0 mph 20.7 mph N/A   Overcast
9:35 AM 37.4 °F 29.3 °F 36.1 °F 95% 29.66 in 7.0 mi West 12.7 mph 20.7 mph N/A   Overcast
9:55 AM 37.6 °F 28.8 °F 36.1 °F 95% 29.67 in 10.0 mi West 15.0 mph 24.2 mph N/A   Overcast
10:15 AM 37.6 °F 28.8 °F 35.6 °F 93% 29.67 in 10.0 mi West 15.0 mph 21.9 mph N/A   Overcast
10:35 AM 37.8 °F 27.4 °F 35.2 °F 91% 29.68 in 10.0 mi West 20.7 mph 25.3 mph N/A   Overcast
10:55 AM 37.8 °F 28.3 °F 34.7 °F 89% 29.68 in 10.0 mi West 17.3 mph 23.0 mph N/A   Overcast
11:15 AM 37.8 °F 29.0 °F 34.7 °F 89% 29.69 in 10.0 mi West 15.0 mph 25.3 mph N/A   Overcast
11:35 AM 37.4 °F 26.9 °F 34.3 °F 89% 29.69 in 7.0 mi West 20.7 mph 29.9 mph N/A   Overcast
11:55 AM 37.6 °F 26.6 °F 34.0 °F 87% 29.69 in 10.0 mi West 23.0 mph 31.1 mph N/A   Overcast
12:15 PM 37.6 °F 26.9 °F 33.8 °F 86% 29.70 in 10.0 mi West 21.9 mph 32.2 mph N/A   Overcast
12:35 PM 37.4 °F 27.5 °F 33.8 °F 87% 29.71 in 10.0 mi West 18.4 mph 27.6 mph N/A   Overcast
12:55 PM 37.6 °F 27.1 °F 33.3 °F 84% 29.71 in 10.0 mi West 20.7 mph 29.9 mph N/A   Overcast
1:15 PM 37.4 °F 27.2 °F 32.9 °F 84% 29.72 in 10.0 mi West 19.6 mph 26.5 mph N/A   Overcast
1:35 PM 37.4 °F 26.1 °F 32.4 °F 82% 29.73 in 10.0 mi West 24.2 mph 34.5 mph N/A   Overcast
1:55 PM 37.6 °F 27.7 °F 32.2 °F 81% 29.74 in 10.0 mi West 18.4 mph 31.1 mph N/A   Overcast
2:15 PM 37.4 °F 27.2 °F 32.0 °F 81% 29.75 in 10.0 mi West 19.6 mph 34.5 mph N/A   Overcast
2:35 PM 37.0 °F 25.1 °F 32.0 °F 82% 29.76 in 10.0 mi WNW 26.5 mph 36.8 mph N/A   Overcast
2:55 PM 37.0 °F 25.9 °F 31.3 °F 80% 29.77 in 10.0 mi West 23.0 mph 32.2 mph N/A   Overcast
3:15 PM 36.7 °F 26.6 °F 31.1 °F 80% 29.78 in 10.0 mi WNW 18.4 mph 29.9 mph N/A   Overcast
3:35 PM 36.5 °F 26.7 °F 31.1 °F 81% 29.79 in 10.0 mi WNW 17.3 mph 24.2 mph N/A   Overcast
3:55 PM 36.5 °F 27.0 °F 31.1 °F 81% 29.80 in 10.0 mi WNW 16.1 mph 27.6 mph N/A   Overcast
4:15 PM 36.1 °F 24.2 °F 29.3 °F 76% 29.81 in 10.0 mi West 25.3 mph 33.4 mph N/A   Overcast
4:35 PM 36.1 °F 25.2 °F 29.3 °F 76% 29.82 in 10.0 mi WNW 20.7 mph 33.4 mph N/A   Overcast
4:55 PM 36.1 °F 25.0 °F 28.9 °F 75% 29.82 in 10.0 mi West 21.9 mph 28.8 mph N/A   Overcast
5:15 PM 36.5 °F 25.7 °F 28.4 °F 72% 29.83 in 10.0 mi WNW 20.7 mph 31.1 mph N/A   Overcast
5:35 PM 36.5 °F 26.3 °F 28.4 °F 72% 29.84 in 10.0 mi WNW 18.4 mph 31.1 mph N/A   Overcast
5:55 PM 36.5 °F 26.3 °F 28.4 °F 72% 29.84 in 10.0 mi WNW 18.4 mph 25.3 mph N/A   Overcast
6:15 PM 36.1 °F 27.7 °F 29.3 °F 76% 29.85 in 10.0 mi West 12.7 mph - N/A   Overcast
6:35 PM 35.8 °F 27.3 °F 30.2 °F 80% 29.86 in 10.0 mi West 12.7 mph 20.7 mph N/A   Overcast
6:55 PM 35.1 °F 25.5 °F 31.3 °F 86% 29.86 in 10.0 mi West 15.0 mph 21.9 mph N/A   Overcast
7:15 PM 34.9 °F 25.3 °F 31.5 °F 87% 29.86 in 10.0 mi West 15.0 mph - N/A   Overcast
7:35 PM 35.1 °F 24.1 °F 30.0 °F 82% 29.87 in 10.0 mi West 19.6 mph 26.5 mph N/A   Overcast
8:35 PM 34.7 °F 24.0 °F 28.4 °F 78% 29.88 in 10.0 mi WNW 18.4 mph 25.3 mph N/A   Overcast
8:55 PM 34.0 °F 23.0 °F 29.3 °F 83% 29.90 in 10.0 mi WNW 18.4 mph 25.3 mph N/A   Overcast
9:15 PM 34.2 °F 24.0 °F 28.4 °F 79% 29.90 in 10.0 mi WNW 16.1 mph 24.2 mph N/A   Overcast
9:35 PM 34.2 °F 23.0 °F 28.2 °F 79% 29.91 in 10.0 mi WNW 19.6 mph 31.1 mph N/A   Overcast
9:55 PM 34.2 °F 22.3 °F 28.0 °F 78% 29.91 in 10.0 mi WNW 21.9 mph 29.9 mph N/A   Overcast
10:15 PM 34.2 °F 22.6 °F 28.0 °F 78% 29.92 in 10.0 mi WNW 20.7 mph 26.5 mph N/A   Overcast
10:35 PM 34.0 °F 24.2 °F 28.0 °F 79% 29.93 in 10.0 mi WNW 15.0 mph 21.9 mph N/A   Overcast
10:55 PM 33.8 °F 23.9 °F 28.2 °F 80% 29.93 in 10.0 mi WNW 15.0 mph 27.6 mph N/A   Overcast
11:15 PM 33.8 °F 23.5 °F 28.2 °F 80% 29.93 in 10.0 mi WNW 16.1 mph 23.0 mph N/A   Overcast
11:35 PM 33.8 °F 23.5 °F 28.2 °F 80% 29.94 in 10.0 mi WNW 16.1 mph 29.9 mph N/A   Overcast
11:55 PM 33.8 °F 23.2 °F 28.4 °F 81% 29.95 in 10.0 mi WNW 17.3 mph 28.8 mph N/A   Overcast